Lapse_Rate
7.8 7.8 7.8 7.6 7.8 7.8 7.7 7.3 6.6 6.2 6.1 6.0 5.9 5.8 5.7 5.5 5.5 5.6 5.7 5.3 5.5 5.7 5.7 5.9 6.1 6.1 6.0 6.3 6.3 6.4 6.3 6.1 6.1 6.2 6.0 6.0 6.0 5.9 6.0 5.9 6.4 6.0 6.4
8.3 8.0 7.8 7.9 8.0 7.9 7.8 7.5 7.0 6.4 6.2 6.1 5.8 5.7 5.6 5.7 5.9 5.8 5.7 5.5 5.5 5.6 5.9 5.8 6.2 6.5 6.9 6.2 6.4 6.4 6.3 6.2 6.2 5.9 5.6 5.6 6.2 6.1 6.1 6.0 6.0 6.2 5.9
8.6 8.0 8.1 8.0 8.0 7.9 7.8 7.5 7.2 6.8 6.5 6.4 6.2 6.1 6.1 6.0 5.9 5.8 5.7 5.4 5.5 5.6 6.0 6.0 6.1 6.5 6.4 6.6 6.5 6.4 6.3 6.2 6.2 6.0 6.0 6.2 6.2 6.1 6.2 6.3 6.2 5.9 5.8
8.4 8.1 8.2 8.1 8.2 7.9 7.8 7.5 7.1 6.9 6.6 6.4 6.3 6.2 6.1 5.9 5.9 5.7 5.5 5.3 5.4 5.5 6.0 6.1 6.4 6.4 6.8 6.9 6.9 6.4 6.5 6.5 6.5 6.5 6.3 6.3 6.2 6.1 6.3 6.3 6.2 6.2 6.0
8.4 8.2 8.1 7.9 8.1 7.8 7.8 7.6 7.2 6.9 6.8 6.6 6.4 6.2 6.0 5.8 5.8 5.7 5.5 5.4 5.4 5.5 5.7 5.6 6.1 6.2 6.8 7.0 6.5 6.9 6.4 6.4 6.3 6.4 6.4 6.3 6.2 6.2 6.2 6.2 6.2 6.2 6.2
8.4 8.3 8.1 7.9 8.0 7.8 7.8 7.6 7.4 7.1 6.9 6.6 6.5 6.3 5.9 5.8 5.8 5.7 5.5 5.5 5.4 5.5 5.9 5.6 5.9 6.1 6.7 6.9 6.4 6.7 6.5 6.5 6.5 6.4 6.3 6.3 6.3 6.2 6.1 6.2 6.1 6.1 6.1
8.4 8.3 8.0 7.8 8.0 7.9 7.7 7.5 7.3 7.1 7.0 6.7 6.5 6.4 6.1 5.8 5.7 5.7 5.6 5.4 5.4 5.4 5.5 5.2 5.5 6.1 6.3 6.2 6.4 6.8 6.3 6.5 6.5 6.4 6.3 6.3 6.4 6.2 6.2 6.4 6.3 6.2 6.1
8.3 8.2 8.0 7.8 7.9 7.9 7.7 7.5 7.3 6.9 6.8 6.6 6.5 6.4 6.2 5.9 5.7 5.8 5.7 5.5 5.4 5.5 5.2 5.2 5.4 5.8 6.0 6.5 6.2 6.7 6.4 6.5 6.3 6.1 6.1 6.2 6.3 6.4 6.5 6.3 6.3 6.2 6.2
8.1 8.2 8.1 7.9 7.9 8.0 7.7 7.5 7.1 6.7 6.5 6.4 6.5 6.3 6.2 6.0 5.9 5.8 5.7 5.6 5.5 5.4 4.9 5.0 5.3 5.7 6.1 6.4 6.1 6.4 6.4 6.2 6.2 6.2 6.2 6.4 6.5 6.6 6.6 6.4 6.3 6.4 6.4
7.9 8.1 8.1 8.0 7.9 8.0 7.8 7.5 7.1 6.6 6.4 6.2 6.3 6.3 6.2 6.2 6.1 5.9 5.7 5.6 5.6 5.2 5.0 5.1 5.5 5.7 6.1 6.2 6.3 5.8 6.1 6.2 6.3 6.1 6.1 6.5 6.5 6.6 6.5 6.5 6.6 6.6 6.4
7.8 7.7 8.0 8.1 7.8 8.0 7.8 7.6 7.3 6.9 6.5 6.3 6.3 6.3 6.2 6.2 6.1 5.9 5.7 5.6 5.7 5.7 5.1 5.2 5.5 6.0 6.2 5.8 6.0 5.9 6.1 6.2 6.2 5.9 6.0 6.3 6.5 6.6 6.4 6.6 6.5 6.6 6.4
8.1 7.8 7.8 7.9 7.9 8.1 8.0 7.7 7.4 7.1 6.8 6.4 6.4 6.4 6.3 6.2 6.3 6.1 5.9 5.6 5.5 5.6 5.4 5.3 5.7 6.0 6.0 6.2 6.2 5.9 6.0 6.2 6.2 6.0 6.0 6.2 6.3 6.3 6.4 6.4 6.4 6.4 6.4
8.6 7.8 7.9 8.0 7.9 7.9 7.9 7.8 7.6 7.3 7.1 6.8 6.5 6.5 6.4 6.3 6.4 6.1 6.0 5.8 5.4 5.3 5.5 5.6 5.8 6.1 6.1 6.1 6.1 5.4 5.8 5.9 6.0 6.0 6.0 6.1 6.3 6.1 6.2 6.3 6.3 6.4 6.5
9.0 8.1 7.8 7.8 7.9 7.8 7.9 7.8 7.7 7.5 7.3 7.1 6.8 6.5 6.4 6.3 6.3 6.3 6.0 5.8 5.6 5.6 5.5 5.6 5.8 6.1 6.0 5.9 6.1 5.9 5.7 5.8 5.8 6.0 5.8 5.9 6.2 6.1 6.3 6.2 6.4 6.4 6.5
7.9 8.0 7.8 7.7 7.8 7.9 8.0 7.8 7.7 7.6 7.4 7.3 7.2 6.8 6.4 6.3 6.2 6.4 6.4 6.0 5.8 5.7 5.5 5.5 5.6 5.8 6.0 5.8 6.0 5.7 5.6 5.7 5.7 5.7 5.9 6.0 5.9 6.1 6.3 6.2 6.3 6.5 6.6
7.3 7.5 7.4 7.4 7.6 7.8 7.9 7.8 7.7 7.5 7.5 7.3 7.4 7.1 6.6 6.4 6.3 6.2 6.4 6.3 6.0 5.8 5.6 5.5 5.4 5.6 5.9 5.8 5.7 5.6 5.5 5.5 5.7 5.7 5.5 5.9 5.8 6.2 6.3 6.3 6.4 6.8 7.0
7.2 7.4 7.5 7.5 7.5 7.7 7.6 7.6 7.6 7.5 7.4 7.4 7.4 7.3 6.9 6.6 6.6 6.3 6.3 6.7 6.3 6.0 5.6 5.4 5.4 5.5 5.9 6.0 5.8 5.9 5.6 5.4 5.5 5.7 5.3 5.8 5.8 6.0 6.2 6.3 6.6 7.0 7.3
7.8 7.8 7.6 7.7 7.7 7.8 7.9 7.7 7.5 7.5 7.4 7.4 7.4 7.4 7.2 7.0 6.8 6.7 6.4 6.6 6.8 6.3 6.0 5.6 5.5 5.3 5.6 5.8 5.9 5.8 5.6 5.6 5.6 5.7 5.3 5.5 5.6 5.9 6.3 6.4 6.7 6.9 7.3
8.2 8.1 7.9 7.7 7.7 7.8 7.8 7.8 7.7 7.4 7.3 7.4 7.2 7.4 7.3 7.2 7.1 7.0 6.7 6.5 6.7 6.8 6.3 5.8 5.6 5.5 5.4 5.4 5.7 5.5 5.5 5.8 5.7 4.8 5.7 5.6 5.6 5.8 6.2 6.7 6.9 6.9 6.9
8.8 8.6 8.1 7.8 8.0 8.1 7.8 7.7 7.6 7.7 7.3 7.3 7.3 7.4 7.5 7.2 7.2 7.3 7.2 6.8 6.7 6.8 6.8 6.4 5.8 5.8 5.3 5.2 5.5 5.4 5.4 5.7 5.6 5.2 5.4 5.5 5.7 6.0 6.3 6.7 6.9 6.9 6.8
8.8 8.8 8.7 8.2 8.1 8.1 7.9 7.7 7.8 7.9 7.8 7.6 7.5 7.3 7.4 7.4 7.3 7.4 7.5 7.2 6.9 6.6 6.7 6.5 5.9 5.7 5.6 5.2 5.3 5.6 5.7 5.5 5.2 5.6 5.6 5.4 5.5 5.7 6.2 6.6 6.7 6.8 6.7
8.3 8.8 8.9 8.5 8.4 8.2 7.9 7.9 7.9 8.0 7.9 7.8 7.4 7.2 7.4 7.5 7.4 7.4 7.6 7.6 7.2 6.8 6.5 6.7 6.6 5.9 5.7 5.5 5.4 5.3 5.5 5.7 5.8 5.9 5.4 5.2 5.3 5.6 6.2 6.4 6.6 6.6 6.8
8.1 8.5 8.8 8.8 8.3 8.3 8.2 7.9 7.9 8.0 8.2 7.7 7.4 7.2 7.7 7.7 7.6 7.5 7.6 7.8 7.5 7.1 6.7 6.7 6.7 6.5 6.0 5.7 5.8 5.4 5.5 5.7 5.9 5.7 5.6 5.2 5.2 5.4 5.9 6.2 6.4 6.5 6.7
8.3 8.4 8.6 9.0 8.7 8.4 8.2 8.0 7.9 8.2 8.3 8.0 7.7 7.6 7.5 7.6 7.6 7.5 7.5 7.7 7.8 7.5 7.2 6.7 6.8 6.7 6.3 5.9 5.7 6.0 5.7 5.8 5.6 5.8 5.7 5.5 5.3 5.2 5.3 5.9 6.1 6.3 6.4
8.0 7.9 8.1 8.4 8.5 8.5 8.3 8.0 8.1 8.3 8.4 8.1 7.8 7.4 7.5 7.6 7.6 7.6 7.7 7.8 7.9 7.7 7.5 7.0 6.9 6.9 6.7 6.0 5.8 5.9 5.9 5.9 5.7 5.7 5.9 5.8 5.3 5.1 5.4 5.7 5.8 6.0 6.1
7.2 7.5 7.0 7.4 8.5 8.6 8.5 8.4 8.4 8.6 8.3 8.1 7.7 7.5 7.5 7.5 7.6 7.6 7.6 7.9 8.0 7.8 7.4 7.1 6.9 6.9 6.8 6.3 6.0 5.8 6.0 5.9 5.7 5.7 5.8 5.8 5.5 5.4 5.0 5.2 5.6 5.8 5.8
Wind_Speed
5 9 15 15 15 18 18 18 18 17 17 17 17 16 15 17 17 17 16 16 18 18 17 16 16 17 16 14 15 19 18 19 19 20 20 22 24 20 22 21 20 20 22
13 15 19 18 17 18 19 18 18 17 17 17 17 16 17 17 17 17 17 18 18 18 17 15 17 17 17 15 17 19 17 22 23 23 21 20 22 21 21 20 20 21 21
16 17 19 19 18 19 19 19 19 17 17 17 17 16 17 19 19 18 18 19 18 17 18 18 18 17 17 16 18 21 22 21 22 21 22 19 18 22 21 21 22 22 23
15 16 18 20 18 19 20 19 18 18 17 16 16 17 17 18 18 18 17 16 15 16 15 16 19 19 19 19 21 21 21 20 21 19 14 15 17 22 22 21 22 24 23
12 15 17 21 19 20 20 20 18 18 17 16 16 16 16 18 17 18 16 14 14 17 19 17 16 20 22 23 21 22 20 18 18 17 14 15 16 21 22 22 21 22 21
11 13 19 19 20 20 21 21 19 19 17 16 15 17 18 18 18 18 15 14 13 13 14 19 18 18 22 24 23 21 20 21 18 16 14 16 16 22 21 20 21 21 21
12 11 19 19 20 21 20 20 20 19 18 16 15 16 16 17 19 18 16 14 15 15 15 16 22 20 21 21 22 22 21 20 16 13 15 15 18 22 21 20 20 21 21
16 13 16 19 19 21 20 20 21 20 20 18 17 16 15 17 18 19 16 15 16 16 18 16 22 24 21 18 21 22 21 18 14 14 14 14 20 21 21 21 21 21 19
9 12 10 16 17 18 20 22 22 20 20 21 19 16 16 18 18 18 14 11 12 13 13 21 19 24 20 20 23 23 21 17 15 12 14 14 21 21 22 21 21 20 20
8 9 13 10 13 13 15 21 22 21 20 21 20 18 18 17 17 15 14 11 14 15 12 17 21 22 20 20 18 22 18 13 14 12 11 13 21 23 21 21 20 20 20
5 6 11 13 10 10 11 16 18 19 20 20 18 19 17 11 12 14 13 13 15 14 11 15 18 20 21 20 16 21 18 13 13 12 13 20 19 21 21 20 19 20 19
11 10 11 13 13 9 9 12 11 12 12 12 12 14 12 11 12 11 13 12 16 15 9 12 15 18 18 14 13 19 11 13 13 13 11 22 19 21 20 20 18 19 18
13 9 11 12 12 12 11 10 8 9 11 12 12 12 12 10 10 8 8 9 11 12 7 8 11 11 12 11 11 8 13 13 12 13 14 21 21 20 19 19 18 18 19
10 15 12 12 12 11 9 10 10 8 10 6 12 12 9 4 4 4 4 7 7 9 6 6 6 8 10 11 14 10 10 9 11 12 15 22 21 20 19 19 19 18 18
7 8 9 12 12 11 13 10 10 11 8 10 13 13 11 6 6 5 4 6 7 10 9 7 6 5 7 9 10 12 11 11 9 12 13 22 22 22 20 19 19 20 20
11 9 10 12 13 13 11 13 11 11 10 10 11 14 14 10 5 6 5 4 5 11 10 9 7 5 5 8 5 9 10 11 10 11 8 15 20 20 19 19 19 20 20
15 16 14 14 14 15 14 12 10 10 11 10 8 17 16 13 9 6 6 5 5 11 11 7 5 5 4 4 4 4 7 11 10 14 12 14 17 19 18 18 18 19 19
13 15 15 14 15 15 14 12 9 10 10 11 11 14 19 15 14 7 6 6 8 9 8 4 4 3 4 4 3 4 4 8 9 10 10 13 16 15 18 19 18 18 19
15 16 15 17 17 17 14 11 10 10 9 8 11 12 17 16 15 8 7 6 12 6 6 5 2 3 3 4 4 3 3 5 5 8 9 11 16 16 16 19 17 19 19
14 16 17 15 19 17 10 9 7 7 7 8 10 10 17 15 16 10 6 7 10 7 6 5 5 2 2 4 4 4 3 3 4 5 7 10 12 16 17 16 18 16 18
11 14 18 18 18 13 11 11 10 12 10 9 9 12 13 14 16 12 8 8 8 9 10 9 3 6 2 3 4 3 2 3 4 4 5 5 8 12 15 16 16 16 17
10 16 19 19 19 17 14 14 9 12 9 8 8 10 12 13 14 11 11 9 11 7 8 9 6 3 2 7 4 4 3 1 2 4 4 4 5 8 10 14 16 17 19
9 13 17 20 21 19 19 12 5 6 5 5 8 10 11 14 13 14 13 11 11 9 9 10 10 10 7 7 8 4 3 4 2 3 6 5 5 4 9 13 15 17 19
12 11 15 18 20 20 20 16 19 16 13 10 12 10 10 14 14 14 14 12 12 9 10 10 8 9 9 9 4 5 2 4 3 2 3 5 5 7 8 9 13 15 18
11 2 8 13 20 20 21 20 16 16 12 6 9 12 11 11 12 13 13 13 12 9 11 12 10 10 9 9 10 8 4 2 3 3 4 6 5 7 7 6 13 15 17
2 3 4 12 17 18 21 20 21 19 14 11 11 10 9 8 9 12 13 12 11 11 11 11 12 13 11 10 9 9 9 7 4 3 2 11 12 7 7 7 7 13 16
Wind_Direction
201 157 159 158 149 136 131 128 125 120 115 110 111 110 107 105 110 119 127 134 133 131 132 125 123 127 123 120 127 123 125 119 123 129 123 126 126 127 112 108 104 106 104
142 154 161 160 151 141 139 134 130 127 123 119 120 121 119 118 120 125 136 136 135 136 132 125 127 126 127 125 120 128 124 118 118 118 129 132 124 123 113 104 103 103 106
145 157 161 157 154 147 143 139 136 131 127 128 131 132 130 132 132 137 138 139 144 145 143 134 130 130 131 125 120 124 122 127 132 140 149 124 126 125 116 108 109 108 107
151 156 159 155 156 152 145 141 140 137 136 139 140 141 142 139 136 130 126 125 140 145 139 137 138 138 135 128 118 113 117 117 121 119 110 121 127 125 121 115 115 114 111
157 161 158 158 161 156 147 143 142 141 143 147 147 148 147 146 140 131 127 135 139 149 145 140 138 141 137 127 118 118 118 112 109 110 115 127 130 131 127 119 115 113 110
161 163 156 162 166 157 152 146 144 145 151 151 151 152 153 151 138 134 124 129 129 125 138 134 131 130 129 132 127 124 123 121 116 112 117 129 133 133 124 118 115 112 112
165 159 158 170 167 157 152 147 147 151 154 152 158 157 160 150 142 141 144 139 135 126 116 137 130 134 135 132 128 132 131 126 122 117 119 122 127 127 124 123 117 117 117
159 155 163 173 169 158 152 149 150 156 156 154 161 167 160 151 148 152 161 158 147 138 123 143 140 138 132 127 129 135 136 131 125 123 122 118 132 133 132 127 117 118 116
144 151 162 170 167 158 153 150 154 161 159 159 163 170 155 156 156 162 171 174 127 134 133 136 139 133 134 132 137 145 144 135 126 128 128 135 137 136 134 134 126 122 119
134 162 164 161 160 158 158 154 158 161 160 162 165 167 169 165 164 159 162 160 139 141 141 139 139 137 139 137 137 145 141 132 125 120 137 141 141 139 139 139 137 131 131
147 174 169 163 161 157 153 159 159 160 158 162 162 166 169 168 170 160 161 161 154 150 142 145 139 143 144 142 140 145 142 138 126 132 143 149 145 144 145 142 142 140 138
186 184 176 170 164 155 153 158 155 156 159 157 161 159 162 166 170 166 165 158 158 158 153 147 140 144 137 139 142 147 138 140 140 143 163 152 153 148 148 146 147 147 147
189 182 184 171 163 159 164 164 164 158 166 166 158 162 164 157 161 164 166 171 159 152 140 126 125 135 141 144 146 159 150 147 147 152 165 158 157 152 153 151 154 156 152
205 194 181 177 169 165 162 171 174 174 180 173 170 164 160 156 154 156 158 160 157 147 137 137 142 147 148 160 157 155 151 153 155 152 172 164 158 152 159 163 162 164 157
235 259 200 179 176 171 166 172 177 185 180 182 174 170 168 168 169 157 158 155 151 157 170 174 167 161 152 153 151 167 161 159 164 152 167 173 170 161 168 173 171 169 164
215 210 220 194 183 174 175 178 179 180 181 181 180 181 175 174 168 169 161 158 156 174 176 176 175 171 160 158 162 168 159 159 156 137 180 186 172 170 176 183 181 174 170
222 205 198 203 189 180 180 180 178 180 181 183 184 186 181 175 175 171 170 166 170 176 173 159 145 139 143 138 172 180 155 155 166 159 197 175 179 179 185 186 179 177 176
224 201 186 193 195 184 184 182 184 180 180 183 186 184 188 182 173 171 175 176 162 155 153 150 153 149 157 148 140 166 157 153 154 164 197 172 174 176 185 189 178 180 174
213 210 194 185 193 192 181 181 184 182 183 182 181 187 188 184 174 175 181 171 159 160 161 158 147 146 159 146 131 120 137 151 156 176 196 179 173 177 183 190 187 189 175
217 209 202 192 189 192 179 169 171 175 184 181 185 190 183 183 178 172 174 167 164 165 164 153 151 140 150 153 127 108 106 130 147 184 197 191 176 178 184 190 184 187 180
213 218 205 194 193 178 177 175 180 190 186 187 189 184 179 181 179 176 175 169 171 176 178 171 139 162 111 146 113 92 85 148 166 172 186 197 185 183 182 185 185 178 189
215 207 213 203 188 185 185 188 188 186 194 180 183 183 183 180 178 176 173 179 182 172 163 169 160 140 124 168 153 145 181 139 216 190 171 186 200 188 193 186 186 183 182
216 204 212 205 195 189 185 177 126 112 107 151 181 190 188 182 179 179 176 178 180 179 184 179 185 175 178 187 184 150 155 213 134 168 196 181 182 198 205 196 187 187 187
247 192 201 203 195 192 180 175 173 177 180 195 193 184 182 181 183 183 179 179 178 180 183 185 184 193 180 188 197 222 233 144 176 173 177 199 191 203 206 201 194 190 190
261 213 213 207 202 187 181 179 181 184 187 162 174 173 177 182 187 189 177 178 179 184 185 180 183 195 196 194 200 194 212 231 230 150 181 187 196 206 207 206 197 194 193
80 29 171 208 202 187 179 179 184 181 169 155 167 176 179 180 184 189 174 179 183 185 180 185 188 197 201 206 200 204 206 203 193 190 155 194 199 197 198 205 205 202 194